This is the latest recevied weather packets stored in our database for station/object KU4DD. If no packets are shown the sender has not sent any weather packets the latest 10 day(s).
| Time | Temp. | Humidity | Pressure | Rain* | Wind** | Luminosity | Snow |
|---|---|---|---|---|---|---|---|
| 1777677785 | 22.22° C | 50% | 1010.5 hPa | 0 mm | - | - | - |
| 1777675577 | 21.67° C | 50% | 1010.5 hPa | 0 mm | - | - | - |
| 1777674941 | 21.67° C | 51% | 1010.8 hPa | 0 mm | - | - | - |
| 1777671495 | 21.11° C | 48% | 1010.8 hPa | 0 mm | - | - | - |
| 1777668035 | 21.11° C | 53% | 1011.2 hPa | 0 mm | - | - | - |
| 1777664889 | 21.11° C | 53% | 1011.9 hPa | 0 mm | - | - | - |
| 1777664562 | 21.11° C | 52% | 1011.9 hPa | 0 mm | - | - | - |
| 1777661417 | 21.11° C | 50% | 1012.5 hPa | 0 mm | - | - | - |
| 1777659540 | 20.56° C | 52% | 1012.9 hPa | 0 mm | - | - | - |
| 1777658587 | 20.56° C | 52% | 1013.2 hPa | 0 mm | - | - | - |
| 1777657322 | 20.56° C | 52% | 1013.2 hPa | 0 mm | - | - | - |
| 1777656677 | 20.56° C | 52% | 1013.2 hPa | 0 mm | - | - | - |
| 1777651980 | 20.56° C | 50% | 1013.2 hPa | 0 mm | - | - | - |
| 1777649774 | 21.11° C | 49% | 1013.9 hPa | 0 mm | - | - | - |
| 1777646939 | 20.56° C | 50% | 1013.9 hPa | 0 mm | - | - | - |
| 1777645373 | 20.56° C | 51% | 1013.9 hPa | 0 mm | - | - | - |
| 1777644448 | 20.56° C | 52% | 1013.5 hPa | 0 mm | - | - | - |
| 1777643179 | 20.56° C | 52% | 1013.5 hPa | 0 mm | - | - | - |
| 1777640974 | 21.11° C | 52% | 1013.9 hPa | 0 mm | - | - | - |
| 1777632183 | 20.56° C | 52% | 1012.5 hPa | 0 mm | - | - | - |
| 1777629035 | 21.11° C | 52% | 1012.2 hPa | 0 mm | - | - | - |
| 1777625891 | 21.11° C | 53% | 1011.9 hPa | 0 mm | - | - | - |
| 1777625565 | 21.11° C | 52% | 1012.2 hPa | 0 mm | - | - | - |
| 1777624630 | 21.11° C | 52% | 1012.2 hPa | 0 mm | - | - | - |
| 1777621499 | 21.11° C | 53% | 1011.5 hPa | 0 mm | - | - | - |
* Rain latest hour (hover to see other rain measurements)
** Current wind speed in m/s (hover to see current wind gust speed)